QPF
0.00 0.00 0.00 0.00 0.00 0.00 0.00 0.00 0.00 0.00 0.00 0.00 0.00 0.00 0.00 0.00 0.00 0.00 0.00 0.00 0.00 0.00 0.00 0.00 0.00 0.00 0.00 0.00 0.00 0.00 0.00 0.00 0.00 0.00 0.00 0.00 0.00 0.00 0.00 0.00 0.00 0.01 0.00 0.00 0.00
0.00 0.00 0.00 0.00 0.00 0.00 0.00 0.00 0.00 0.00 0.00 0.00 0.00 0.00 0.00 0.00 0.00 0.00 0.00 0.00 0.00 0.00 0.00 0.00 0.00 0.00 0.00 0.00 0.00 0.00 0.00 0.00 0.00 0.00 0.00 0.00 0.00 0.00 0.00 0.00 0.00 0.00 0.00 0.00 0.00
0.00 0.00 0.00 0.00 0.00 0.00 0.00 0.00 0.00 0.00 0.00 0.00 0.00 0.00 0.00 0.00 0.00 0.00 0.00 0.00 0.00 0.00 0.00 0.00 0.00 0.00 0.00 0.00 0.00 0.00 0.00 0.00 0.00 0.00 0.00 0.00 0.00 0.00 0.00 0.00 0.00 0.00 0.00 0.00 0.00
0.00 0.00 0.00 0.00 0.00 0.00 0.00 0.00 0.00 0.00 0.00 0.00 0.00 0.00 0.00 0.00 0.00 0.00 0.00 0.00 0.00 0.00 0.00 0.00 0.00 0.00 0.00 0.00 0.00 0.00 0.00 0.00 0.00 0.00 0.00 0.00 0.00 0.00 0.00 0.00 0.00 0.00 0.00 0.00 0.00
0.00 0.00 0.00 0.00 0.00 0.00 0.00 0.00 0.00 0.00 0.00 0.00 0.00 0.00 0.00 0.00 0.00 0.00 0.00 0.00 0.00 0.00 0.00 0.00 0.00 0.00 0.00 0.00 0.00 0.00 0.00 0.00 0.00 0.00 0.00 0.00 0.00 0.00 0.00 0.00 0.00 0.00 0.00 0.00 0.00
0.00 0.00 0.00 0.00 0.00 0.00 0.00 0.00 0.00 0.00 0.00 0.00 0.00 0.00 0.00 0.00 0.00 0.00 0.00 0.00 0.00 0.00 0.00 0.00 0.00 0.00 0.00 0.00 0.00 0.00 0.00 0.00 0.00 0.00 0.00 0.00 0.00 0.00 0.00 0.00 0.00 0.00 0.00 0.00 0.00
0.00 0.00 0.00 0.00 0.00 0.00 0.00 0.00 0.00 0.00 0.00 0.00 0.00 0.00 0.00 0.00 0.00 0.00 0.00 0.00 0.00 0.00 0.00 0.00 0.00 0.00 0.00 0.00 0.00 0.00 0.00 0.00 0.00 0.00 0.00 0.00 0.00 0.00 0.00 0.00 0.00 0.00 0.00 0.01 0.01
0.00 0.00 0.00 0.00 0.00 0.00 0.00 0.00 0.00 0.00 0.00 0.00 0.00 0.00 0.00 0.00 0.00 0.00 0.00 0.00 0.00 0.00 0.00 0.00 0.00 0.00 0.00 0.00 0.00 0.00 0.00 0.00 0.00 0.00 0.00 0.00 0.00 0.00 0.00 0.00 0.00 0.00 0.00 0.00 0.02
0.00 0.00 0.00 0.00 0.00 0.00 0.00 0.00 0.00 0.00 0.00 0.00 0.00 0.00 0.00 0.00 0.00 0.00 0.00 0.00 0.00 0.00 0.00 0.00 0.00 0.00 0.00 0.00 0.00 0.00 0.00 0.00 0.00 0.00 0.00 0.00 0.00 0.00 0.00 0.00 0.00 0.00 0.00 0.00 0.01
0.00 0.00 0.00 0.00 0.00 0.00 0.00 0.00 0.00 0.00 0.00 0.00 0.00 0.00 0.00 0.00 0.00 0.00 0.00 0.00 0.00 0.00 0.00 0.00 0.00 0.00 0.00 0.00 0.00 0.00 0.00 0.00 0.00 0.00 0.00 0.00 0.00 0.00 0.00 0.00 0.00 0.00 0.00 0.00 0.00
0.00 0.00 0.00 0.00 0.00 0.00 0.00 0.00 0.00 0.00 0.00 0.00 0.00 0.00 0.00 0.00 0.00 0.00 0.00 0.00 0.00 0.00 0.00 0.00 0.00 0.00 0.00 0.00 0.00 0.00 0.00 0.00 0.00 0.00 0.00 0.00 0.00 0.00 0.00 0.00 0.00 0.00 0.00 0.00 0.00
0.00 0.00 0.00 0.00 0.00 0.00 0.00 0.00 0.00 0.00 0.00 0.00 0.00 0.00 0.00 0.00 0.00 0.00 0.00 0.00 0.00 0.00 0.00 0.00 0.00 0.00 0.00 0.00 0.00 0.00 0.00 0.00 0.00 0.00 0.00 0.00 0.00 0.00 0.00 0.00 0.00 0.00 0.00 0.00 0.00
0.00 0.00 0.00 0.00 0.00 0.00 0.00 0.00 0.00 0.00 0.00 0.00 0.00 0.00 0.00 0.00 0.00 0.00 0.00 0.00 0.00 0.00 0.00 0.00 0.00 0.00 0.00 0.00 0.00 0.00 0.00 0.00 0.00 0.00 0.00 0.00 0.00 0.00 0.00 0.00 0.00 0.00 0.00 0.00 0.00
0.00 0.00 0.00 0.00 0.00 0.00 0.00 0.00 0.00 0.00 0.00 0.00 0.00 0.00 0.00 0.00 0.00 0.00 0.00 0.00 0.00 0.00 0.00 0.00 0.00 0.00 0.00 0.00 0.00 0.00 0.00 0.00 0.00 0.00 0.00 0.00 0.00 0.00 0.00 0.00 0.00 0.00 0.00 0.00 0.00
0.00 0.00 0.00 0.00 0.00 0.00 0.00 0.00 0.00 0.00 0.00 0.00 0.00 0.00 0.00 0.00 0.00 0.00 0.00 0.00 0.00 0.00 0.00 0.00 0.00 0.00 0.00 0.00 0.00 0.00 0.00 0.00 0.00 0.00 0.00 0.00 0.00 0.00 0.00 0.00 0.00 0.00 0.00 0.00 0.00
0.00 0.00 0.00 0.00 0.00 0.00 0.00 0.00 0.00 0.00 0.00 0.00 0.00 0.00 0.00 0.00 0.00 0.00 0.00 0.00 0.00 0.00 0.00 0.00 0.00 0.00 0.00 0.00 0.00 0.00 0.00 0.00 0.00 0.00 0.00 0.00 0.00 0.00 0.01 0.03 0.01 0.00 0.00 0.00 0.00
0.00 0.00 0.00 0.00 0.00 0.00 0.00 0.00 0.00 0.00 0.00 0.00 0.00 0.00 0.00 0.00 0.00 0.00 0.00 0.00 0.00 0.00 0.00 0.00 0.00 0.00 0.00 0.00 0.00 0.00 0.00 0.00 0.00 0.00 0.00 0.00 0.00 0.00 0.04 0.13 0.08 0.05 0.04 0.03 0.00
0.00 0.00 0.00 0.00 0.00 0.00 0.00 0.00 0.00 0.00 0.00 0.00 0.00 0.00 0.00 0.00 0.00 0.00 0.00 0.00 0.00 0.00 0.00 0.00 0.00 0.00 0.00 0.00 0.00 0.00 0.00 0.00 0.00 0.00 0.00 0.00 0.00 0.00 0.01 0.09 0.13 0.10 0.09 0.07 0.04
0.00 0.00 0.00 0.00 0.00 0.00 0.00 0.00 0.00 0.00 0.00 0.00 0.00 0.00 0.00 0.00 0.00 0.00 0.00 0.00 0.00 0.00 0.00 0.00 0.00 0.00 0.00 0.00 0.00 0.00 0.00 0.00 0.00 0.00 0.00 0.00 0.00 0.00 0.00 0.01 0.06 0.05 0.06 0.05 0.05
0.00 0.00 0.00 0.00 0.00 0.00 0.00 0.00 0.00 0.00 0.00 0.00 0.00 0.00 0.00 0.00 0.00 0.00 0.00 0.00 0.00 0.00 0.00 0.00 0.00 0.00 0.00 0.00 0.00 0.00 0.00 0.00 0.00 0.00 0.00 0.00 0.00 0.00 0.00 0.00 0.01 0.01 0.01 0.01 0.01
0.00 0.00 0.00 0.00 0.00 0.00 0.00 0.00 0.00 0.00 0.00 0.00 0.00 0.00 0.00 0.00 0.00 0.00 0.00 0.00 0.00 0.00 0.00 0.00 0.00 0.00 0.00 0.00 0.00 0.00 0.00 0.00 0.00 0.00 0.00 0.00 0.00 0.00 0.00 0.00 0.00 0.00 0.00 0.00 0.00
0.00 0.00 0.00 0.00 0.00 0.00 0.00 0.00 0.00 0.00 0.00 0.00 0.00 0.00 0.00 0.00 0.00 0.00 0.00 0.00 0.00 0.00 0.00 0.00 0.00 0.00 0.00 0.00 0.00 0.00 0.00 0.00 0.00 0.00 0.00 0.00 0.00 0.00 0.00 0.00 0.00 0.00 0.00 0.00 0.00
0.00 0.00 0.00 0.00 0.00 0.00 0.00 0.00 0.00 0.00 0.00 0.00 0.00 0.00 0.00 0.00 0.00 0.00 0.00 0.00 0.00 0.00 0.00 0.00 0.00 0.00 0.00 0.00 0.00 0.00 0.00 0.00 0.00 0.00 0.00 0.00 0.00 0.00 0.00 0.00 0.00 0.00 0.00 0.00 0.00
0.00 0.00 0.00 0.00 0.00 0.00 0.00 0.00 0.00 0.00 0.00 0.00 0.00 0.00 0.00 0.00 0.00 0.00 0.00 0.00 0.00 0.00 0.00 0.00 0.00 0.00 0.00 0.00 0.00 0.00 0.00 0.00 0.00 0.00 0.00 0.00 0.00 0.00 0.00 0.00 0.00 0.00 0.00 0.00 0.00
0.00 0.00 0.00 0.00 0.00 0.00 0.00 0.00 0.00 0.00 0.00 0.00 0.00 0.00 0.00 0.00 0.00 0.00 0.00 0.00 0.00 0.00 0.00 0.00 0.00 0.00 0.00 0.00 0.00 0.00 0.00 0.00 0.00 0.00 0.00 0.00 0.00 0.00 0.00 0.00 0.00 0.00 0.00 0.00 0.00
0.00 0.00 0.00 0.00 0.00 0.00 0.00 0.00 0.00 0.00 0.00 0.00 0.00 0.00 0.00 0.00 0.00 0.00 0.00 0.00 0.00 0.00 0.00 0.00 0.00 0.00 0.00 0.00 0.00 0.00 0.00 0.00 0.00 0.00 0.00 0.00 0.00 0.00 0.00 0.00 0.00 0.00 0.00 0.00 0.00
0.00 0.00 0.00 0.00 0.00 0.00 0.00 0.00 0.00 0.00 0.00 0.00 0.00 0.00 0.00 0.00 0.00 0.00 0.00 0.00 0.00 0.00 0.00 0.00 0.00 0.00 0.00 0.00 0.00 0.00 0.00 0.00 0.00 0.00 0.00 0.00 0.00 0.00 0.00 0.00 0.00 0.00 0.00 0.00 0.00
MSLP
1018.30 1017.92 1018.12 1017.91 1017.44 1017.12 1016.97 1016.65 1016.23 1016.25 1015.63 1015.46 1014.77 1014.67 1014.57 1014.24 1013.50 1013.26 1013.08 1012.85 1012.68 1012.28 1012.04 1011.85 1011.93 1012.15 1012.30 1012.60 1012.75 1013.06 1013.80 1013.77 1013.11 1012.36 1011.39 1010.60 1010.42 1010.25 1010.32 1010.48 1010.35 1010.32 1010.32 1009.47 1011.08
1018.29 1018.02 1018.11 1017.73 1017.32 1017.08 1016.72 1016.34 1016.09 1015.96 1015.51 1015.10 1014.91 1014.78 1014.47 1014.21 1013.97 1013.24 1012.59 1012.44 1012.35 1012.16 1012.27 1012.33 1012.46 1012.58 1012.94 1013.08 1013.24 1013.46 1014.01 1013.64 1012.88 1012.20 1011.74 1011.12 1010.83 1010.45 1010.65 1010.44 1010.37 1010.16 1010.30 1010.96 1011.14
1018.28 1018.10 1017.89 1017.56 1017.28 1016.88 1016.44 1016.12 1015.72 1015.77 1015.36 1015.04 1014.94 1014.66 1014.35 1014.31 1013.94 1012.98 1012.35 1012.35 1012.22 1012.14 1012.36 1012.54 1012.68 1012.82 1013.27 1013.42 1013.68 1013.84 1013.82 1013.28 1012.71 1012.11 1011.80 1011.36 1010.83 1010.61 1010.63 1010.60 1010.24 1010.14 1010.46 1010.93 1011.20
1018.19 1018.13 1017.82 1017.43 1017.05 1016.64 1016.31 1015.75 1015.66 1015.66 1015.20 1014.92 1014.81 1014.58 1014.29 1014.24 1013.85 1012.51 1012.22 1012.26 1012.13 1012.08 1012.27 1012.49 1012.75 1013.28 1013.78 1014.00 1013.96 1013.98 1013.44 1013.19 1012.71 1012.09 1011.88 1011.48 1010.97 1010.44 1010.22 1010.12 1009.44 1009.39 1009.85 1010.36 1010.82
1018.32 1018.10 1017.64 1017.19 1016.93 1016.51 1016.00 1015.73 1015.59 1015.37 1015.11 1014.84 1014.68 1014.49 1014.27 1013.84 1013.11 1012.21 1012.26 1012.32 1012.22 1012.22 1012.54 1012.80 1013.15 1013.52 1013.99 1014.19 1014.12 1014.03 1013.59 1013.10 1012.47 1012.19 1011.84 1011.34 1010.98 1010.58 1009.79 1009.55 1009.17 1009.24 1009.48 1009.81 1010.26
1018.34 1017.92 1017.58 1017.19 1016.74 1016.36 1015.97 1015.62 1015.32 1015.12 1014.92 1014.80 1014.70 1014.49 1014.24 1013.53 1012.28 1012.21 1012.30 1012.34 1012.30 1012.35 1012.55 1012.78 1013.17 1013.39 1013.87 1014.12 1014.34 1014.05 1013.76 1013.28 1012.66 1012.18 1011.74 1011.44 1010.87 1010.63 1009.71 1009.12 1009.28 1009.23 1009.32 1009.54 1009.57
1018.34 1017.99 1017.48 1017.01 1016.51 1016.04 1015.62 1015.28 1014.96 1014.77 1014.66 1014.64 1014.57 1014.49 1014.02 1013.00 1012.28 1012.32 1012.31 1012.32 1012.28 1012.34 1012.55 1012.70 1013.01 1013.43 1013.82 1014.07 1013.98 1013.92 1014.08 1013.48 1012.87 1012.46 1011.87 1011.38 1011.04 1010.52 1009.73 1009.57 1009.38 1009.28 1009.60 1009.71 1009.53
1018.34 1017.90 1017.36 1016.75 1016.22 1015.79 1015.33 1014.95 1014.56 1014.37 1014.46 1014.50 1014.44 1014.41 1013.45 1012.29 1012.22 1012.34 1012.37 1012.24 1012.23 1012.22 1012.41 1012.55 1012.94 1013.48 1013.81 1014.08 1014.15 1014.33 1014.37 1014.22 1013.12 1012.64 1011.76 1011.64 1011.51 1010.63 1010.07 1009.99 1009.92 1009.62 1009.59 1009.68 1009.71
1018.23 1017.84 1017.26 1016.64 1016.13 1015.64 1015.09 1014.63 1014.37 1014.36 1014.45 1014.47 1014.52 1014.19 1013.16 1012.16 1012.25 1012.23 1012.22 1012.34 1012.23 1012.28 1012.40 1012.68 1013.05 1013.92 1014.38 1014.84 1015.15 1015.28 1015.18 1014.65 1013.72 1012.44 1012.31 1012.11 1011.77 1011.09 1010.18 1010.33 1010.44 1010.01 1009.76 1009.70 1009.56
1018.19 1017.77 1017.25 1016.68 1015.86 1015.32 1014.89 1014.80 1014.68 1014.54 1014.51 1014.43 1014.40 1014.44 1013.01 1012.79 1012.45 1012.24 1012.18 1012.29 1012.48 1012.61 1012.91 1013.21 1013.95 1014.55 1015.00 1015.40 1015.86 1015.66 1015.32 1014.79 1014.19 1012.88 1012.56 1012.34 1011.97 1011.26 1010.62 1010.53 1010.55 1010.37 1009.98 1009.66 1009.54
1018.19 1017.88 1017.40 1016.64 1015.75 1015.18 1014.87 1015.01 1015.52 1015.31 1014.86 1015.18 1015.00 1014.50 1013.69 1013.05 1012.64 1012.35 1012.23 1012.45 1012.75 1013.17 1013.80 1014.28 1015.01 1015.27 1015.21 1015.13 1015.24 1015.23 1015.10 1014.61 1013.63 1012.73 1012.85 1012.44 1012.04 1011.41 1010.64 1010.39 1010.47 1010.52 1010.18 1009.63 1009.28
1018.18 1017.88 1017.48 1016.84 1016.03 1015.09 1015.03 1016.16 1016.76 1016.82 1015.98 1015.13 1014.85 1014.51 1013.77 1013.44 1013.15 1012.53 1012.44 1012.92 1013.25 1013.83 1014.23 1014.81 1014.94 1014.58 1014.62 1014.54 1014.71 1014.66 1014.69 1014.13 1013.29 1012.73 1012.68 1012.25 1012.08 1010.98 1010.53 1010.20 1010.15 1010.20 1010.15 1009.80 1009.28
1018.19 1017.90 1017.40 1016.62 1015.97 1015.85 1016.32 1016.86 1016.78 1016.77 1016.36 1015.04 1014.31 1013.93 1013.56 1013.59 1013.52 1013.03 1012.91 1013.20 1013.62 1014.06 1014.59 1014.98 1014.46 1014.21 1014.40 1014.26 1014.32 1014.26 1014.23 1014.03 1013.77 1012.88 1012.48 1012.90 1012.14 1011.48 1010.80 1010.62 1010.37 1010.51 1010.41 1010.04 1009.54
1018.22 1017.88 1017.33 1016.76 1016.51 1016.84 1016.89 1016.85 1016.76 1016.72 1016.59 1015.40 1014.14 1013.42 1013.43 1013.56 1013.63 1013.23 1013.14 1013.55 1013.80 1014.34 1014.67 1014.82 1014.19 1014.28 1014.12 1014.17 1014.12 1013.68 1013.46 1014.01 1014.01 1013.75 1014.25 1014.00 1013.79 1012.51 1011.84 1011.18 1011.00 1010.86 1010.68 1010.13 1009.48
1018.17 1017.89 1017.57 1017.22 1017.09 1016.96 1017.08 1016.84 1016.73 1016.80 1016.67 1015.44 1013.96 1013.09 1013.51 1014.04 1013.97 1013.59 1013.55 1013.64 1014.23 1014.65 1015.20 1014.82 1014.51 1014.36 1014.12 1013.84 1013.92 1013.87 1013.43 1013.96 1014.25 1014.72 1015.31 1015.09 1015.14 1013.48 1012.99 1011.98 1011.46 1010.99 1010.60 1010.00 1009.25
1018.13 1017.94 1017.70 1017.29 1017.24 1016.97 1016.83 1016.74 1016.96 1016.85 1016.57 1015.45 1014.60 1014.44 1014.45 1014.55 1014.56 1014.36 1014.33 1014.28 1014.63 1015.15 1015.36 1015.28 1014.67 1014.55 1014.11 1013.60 1013.82 1013.76 1013.76 1014.43 1014.81 1015.59 1016.00 1016.28 1016.18 1014.56 1013.65 1013.15 1011.82 1011.24 1010.67 1009.82 1008.88
1018.00 1017.76 1017.73 1017.39 1017.11 1016.83 1016.91 1017.07 1017.19 1016.94 1016.87 1016.36 1015.88 1015.76 1015.90 1015.84 1015.48 1015.59 1015.80 1015.96 1016.43 1016.53 1016.90 1016.03 1015.01 1014.51 1014.31 1014.21 1014.05 1014.43 1014.93 1016.09 1016.47 1016.97 1017.01 1016.52 1016.24 1015.44 1014.19 1012.26 1012.28 1011.51 1010.86 1009.82 1008.80
1017.84 1017.52 1017.24 1016.97 1016.87 1016.90 1017.10 1016.93 1017.01 1017.11 1016.78 1016.60 1016.54 1016.44 1016.66 1016.74 1016.63 1016.49 1016.62 1017.06 1017.01 1017.44 1018.11 1017.94 1015.93 1015.16 1014.82 1014.93 1015.16 1015.69 1016.50 1017.86 1018.42 1018.48 1017.70 1016.41 1015.99 1015.37 1014.66 1013.20 1012.52 1011.80 1011.26 1010.45 1009.60
1017.68 1017.51 1017.33 1016.75 1016.73 1017.06 1017.28 1017.16 1016.92 1016.77 1016.49 1016.69 1016.94 1017.06 1017.29 1017.33 1017.55 1017.20 1017.22 1017.49 1017.44 1017.52 1018.18 1018.14 1016.97 1015.61 1015.09 1015.07 1015.37 1015.87 1017.05 1017.83 1018.22 1018.62 1018.23 1016.84 1015.46 1015.03 1014.64 1013.57 1012.95 1012.55 1011.88 1011.48 1010.99
1018.49 1018.03 1017.21 1016.51 1016.69 1017.08 1017.50 1017.12 1016.80 1016.47 1016.41 1016.72 1017.33 1017.53 1017.86 1017.78 1017.86 1017.67 1017.54 1017.40 1017.41 1017.51 1017.83 1018.40 1018.12 1016.29 1015.54 1015.36 1015.75 1016.02 1017.09 1017.80 1018.46 1019.04 1018.25 1016.92 1016.16 1015.61 1014.74 1014.54 1013.93 1013.47 1013.31 1013.06 1012.54
1018.73 1018.12 1016.78 1016.53 1016.68 1017.16 1017.63 1017.12 1016.56 1016.15 1016.24 1016.73 1017.19 1017.59 1017.76 1018.01 1018.04 1017.95 1017.73 1017.55 1017.43 1017.55 1017.77 1018.29 1018.88 1017.18 1016.29 1016.04 1016.39 1016.65 1017.10 1017.75 1018.48 1018.70 1018.68 1017.83 1016.53 1015.80 1015.69 1015.51 1014.88 1014.69 1014.52 1014.22 1013.61
1018.67 1018.48 1016.85 1016.66 1017.25 1017.78 1017.56 1016.63 1016.03 1016.15 1016.31 1016.64 1016.93 1017.34 1017.61 1017.89 1018.03 1017.99 1017.82 1017.53 1017.51 1017.64 1018.01 1018.40 1019.08 1018.88 1017.40 1016.46 1016.42 1016.60 1017.12 1017.77 1018.54 1018.64 1018.45 1018.04 1016.64 1015.90 1015.88 1015.61 1015.46 1015.33 1015.25 1015.10 1014.74
1018.43 1017.96 1017.00 1016.79 1017.29 1017.73 1017.08 1016.50 1016.10 1016.24 1016.40 1016.76 1017.12 1017.37 1017.54 1017.92 1018.22 1017.98 1017.80 1017.55 1017.59 1017.78 1018.11 1018.55 1019.28 1019.25 1017.78 1017.38 1016.88 1017.04 1017.29 1017.67 1017.89 1018.28 1018.24 1018.07 1016.41 1015.90 1015.71 1015.85 1015.84 1015.83 1015.71 1015.73 1015.45
1018.39 1018.23 1017.78 1017.49 1017.13 1016.71 1016.86 1016.55 1016.27 1016.02 1016.25 1016.57 1017.16 1017.50 1017.89 1018.00 1018.13 1018.15 1018.06 1017.86 1017.88 1017.99 1018.21 1018.61 1019.62 1019.87 1019.63 1018.73 1018.37 1017.86 1017.31 1017.44 1017.62 1017.87 1017.57 1017.26 1016.45 1015.76 1015.94 1015.96 1016.13 1016.22 1016.11 1016.11 1016.01
1018.03 1017.42 1016.50 1017.29 1017.05 1016.48 1016.12 1016.03 1016.12 1016.19 1016.34 1016.68 1017.40 1017.64 1017.98 1018.28 1018.45 1018.43 1018.24 1018.31 1018.16 1018.42 1018.61 1019.22 1019.95 1019.94 1019.33 1018.76 1018.41 1017.67 1017.19 1016.83 1017.05 1016.72 1016.91 1016.34 1016.28 1015.86 1016.01 1016.02 1016.15 1016.43 1016.58 1016.50 1016.52
1017.29 1017.32 1016.73 1016.28 1015.94 1016.28 1016.03 1015.81 1015.53 1015.89 1016.08 1016.76 1017.24 1017.36 1017.85 1018.17 1018.16 1018.38 1018.49 1018.81 1018.80 1019.01 1019.46 1020.04 1020.34 1020.39 1019.40 1018.29 1017.89 1017.14 1016.18 1015.89 1015.98 1015.95 1015.92 1015.79 1015.65 1015.46 1015.74 1015.99 1016.21 1016.61 1016.87 1017.12 1017.37
1016.27 1016.23 1016.14 1015.87 1015.97 1016.04 1015.43 1014.89 1014.87 1015.28 1015.83 1015.89 1016.54 1017.48 1018.02 1017.66 1017.60 1017.90 1018.26 1018.65 1018.88 1019.42 1020.13 1020.71 1021.00 1021.18 1020.15 1018.68 1017.50 1016.46 1015.16 1014.93 1014.94 1015.16 1015.43 1015.57 1015.13 1015.16 1015.63 1016.01 1016.34 1016.62 1016.86 1017.28 1017.77
Thickness
5701 5704 5700 5702 5705 5707 5705 5707 5710 5707 5711 5710 5715 5712 5710 5710 5713 5712 5704 5705 5702 5701 5699 5695 5688 5682 5679 5674 5674 5670 5645 5639 5653 5660 5675 5692 5690 5703 5705 5701 5709 5715 5722 5737 5727
5700 5703 5699 5702 5704 5705 5707 5709 5708 5707 5709 5711 5710 5708 5707 5706 5705 5703 5708 5703 5699 5695 5688 5679 5673 5671 5660 5662 5659 5650 5633 5639 5654 5661 5661 5673 5680 5688 5689 5693 5697 5706 5713 5718 5720
5700 5700 5700 5702 5702 5705 5708 5707 5708 5706 5707 5708 5707 5706 5705 5701 5699 5696 5704 5699 5694 5690 5682 5674 5669 5664 5654 5652 5647 5643 5632 5645 5651 5656 5657 5663 5668 5681 5678 5679 5691 5697 5700 5710 5715
5699 5698 5700 5701 5703 5705 5706 5708 5707 5704 5706 5706 5704 5703 5701 5698 5673 5700 5701 5696 5691 5685 5676 5668 5660 5650 5641 5638 5640 5633 5640 5641 5645 5652 5650 5652 5664 5668 5677 5683 5699 5702 5702 5708 5710
5696 5697 5699 5702 5702 5704 5706 5706 5705 5704 5704 5704 5702 5699 5698 5691 5688 5702 5697 5692 5687 5679 5666 5659 5651 5645 5634 5632 5631 5628 5633 5639 5642 5642 5644 5651 5653 5658 5673 5684 5694 5697 5698 5703 5706
5695 5697 5698 5700 5702 5703 5705 5705 5705 5704 5703 5701 5698 5696 5693 5678 5703 5699 5693 5687 5682 5675 5665 5659 5649 5646 5635 5629 5623 5627 5628 5627 5633 5637 5639 5642 5647 5655 5672 5680 5682 5689 5690 5697 5705
5693 5694 5697 5699 5702 5704 5706 5706 5707 5705 5703 5700 5696 5694 5690 5685 5699 5695 5690 5684 5681 5673 5661 5659 5652 5642 5635 5625 5628 5626 5618 5621 5628 5630 5630 5638 5637 5644 5662 5669 5671 5678 5681 5687 5697
5691 5693 5696 5700 5703 5705 5706 5707 5708 5707 5702 5698 5695 5692 5684 5701 5698 5692 5687 5682 5679 5674 5665 5661 5652 5640 5632 5625 5617 5613 5610 5598 5617 5619 5629 5632 5615 5638 5651 5656 5658 5664 5670 5677 5685
5689 5692 5696 5699 5702 5705 5707 5708 5707 5705 5701 5697 5693 5689 5682 5701 5690 5690 5686 5676 5674 5670 5664 5659 5648 5631 5624 5610 5596 5595 5589 5592 5600 5619 5615 5616 5611 5630 5643 5643 5646 5652 5657 5665 5674
5688 5691 5694 5698 5704 5706 5706 5704 5703 5702 5699 5696 5691 5681 5689 5681 5688 5687 5685 5677 5668 5661 5653 5645 5629 5617 5610 5601 5587 5590 5589 5591 5586 5607 5609 5603 5603 5617 5628 5632 5635 5641 5646 5654 5665
5686 5688 5691 5696 5702 5706 5707 5702 5692 5690 5689 5682 5679 5677 5679 5686 5688 5682 5681 5671 5664 5652 5636 5631 5615 5605 5610 5611 5604 5600 5592 5589 5602 5608 5600 5597 5598 5608 5620 5623 5625 5629 5637 5648 5657
5684 5686 5689 5693 5699 5705 5704 5689 5682 5680 5679 5682 5677 5674 5677 5679 5669 5675 5678 5660 5652 5636 5636 5620 5615 5622 5619 5617 5608 5604 5595 5593 5603 5606 5596 5597 5595 5610 5613 5616 5620 5624 5630 5639 5651
5681 5684 5687 5693 5697 5696 5690 5683 5682 5679 5672 5679 5682 5677 5676 5675 5664 5664 5669 5660 5648 5638 5630 5618 5626 5626 5619 5613 5608 5605 5596 5594 5593 5601 5601 5588 5586 5589 5598 5599 5604 5607 5617 5627 5639
5677 5681 5685 5690 5690 5685 5683 5682 5681 5679 5656 5667 5675 5679 5678 5672 5661 5671 5668 5656 5647 5637 5630 5622 5629 5623 5616 5610 5612 5599 5613 5600 5593 5584 5570 5577 5559 5574 5575 5579 5583 5589 5599 5612 5628
5673 5677 5680 5683 5683 5681 5682 5681 5679 5673 5636 5671 5672 5688 5673 5663 5661 5663 5665 5656 5638 5635 5630 5626 5623 5617 5613 5615 5613 5604 5611 5600 5595 5579 5565 5564 5549 5554 5557 5563 5570 5580 5592 5606 5623
5669 5672 5675 5679 5679 5680 5680 5679 5675 5656 5639 5659 5667 5657 5656 5656 5654 5656 5651 5651 5644 5629 5625 5621 5626 5623 5620 5619 5614 5614 5607 5595 5588 5569 5558 5551 5540 5544 5552 5551 5561 5567 5582 5604 5623
5665 5668 5670 5673 5676 5677 5676 5672 5656 5639 5657 5651 5648 5648 5643 5641 5645 5638 5633 5623 5615 5609 5600 5609 5622 5622 5623 5611 5611 5602 5591 5571 5562 5543 5545 5553 5544 5540 5551 5559 5558 5564 5575 5600 5619
5661 5665 5668 5671 5672 5672 5668 5664 5650 5650 5648 5652 5646 5643 5640 5633 5634 5629 5625 5611 5618 5609 5590 5585 5594 5615 5614 5609 5599 5589 5579 5558 5562 5557 5556 5558 5548 5546 5550 5563 5562 5567 5575 5592 5609
5657 5660 5662 5667 5667 5666 5660 5644 5647 5646 5654 5645 5640 5633 5629 5629 5624 5623 5618 5610 5614 5611 5598 5586 5591 5610 5613 5611 5605 5596 5571 5573 5564 5543 5549 5538 5566 5557 5550 5558 5564 5570 5578 5586 5597
5641 5647 5656 5663 5662 5658 5648 5647 5648 5653 5652 5645 5632 5633 5623 5620 5617 5613 5615 5618 5613 5613 5605 5598 5580 5608 5610 5611 5600 5596 5583 5572 5554 5542 5556 5558 5552 5556 5558 5554 5563 5568 5573 5578 5587
5630 5640 5654 5656 5656 5647 5638 5639 5646 5655 5652 5640 5630 5628 5627 5620 5616 5612 5614 5617 5614 5609 5605 5599 5584 5595 5605 5603 5596 5588 5580 5572 5564 5561 5549 5559 5557 5567 5557 5554 5557 5564 5569 5576 5587
5618 5627 5646 5648 5637 5619 5632 5642 5653 5648 5648 5642 5637 5632 5626 5623 5615 5612 5611 5615 5611 5608 5600 5598 5576 5573 5596 5603 5598 5597 5587 5572 5557 5561 5556 5553 5564 5571 5564 5563 5562 5565 5569 5570 5579
5614 5618 5634 5639 5628 5624 5635 5643 5645 5641 5639 5634 5630 5630 5627 5620 5612 5610 5611 5614 5606 5605 5600 5596 5579 5570 5588 5595 5595 5589 5585 5581 5572 5559 5561 5545 5568 5576 5574 5568 5568 5568 5568 5570 5575
5601 5612 5619 5621 5622 5633 5631 5634 5636 5641 5637 5635 5629 5626 5620 5616 5611 5609 5607 5610 5605 5604 5602 5595 5576 5577 5570 5583 5583 5580 5584 5582 5575 5565 5567 5561 5572 5584 5575 5576 5572 5568 5570 5569 5574
5586 5609 5624 5614 5623 5627 5630 5633 5631 5629 5632 5629 5622 5619 5614 5608 5606 5602 5604 5601 5604 5599 5594 5586 5580 5578 5579 5580 5579 5581 5583 5582 5581 5583 5581 5583 5581 5587 5581 5582 5580 5575 5572 5573 5575
5582 5592 5605 5619 5624 5620 5620 5627 5631 5627 5626 5622 5618 5616 5610 5606 5604 5602 5600 5597 5593 5595 5588 5574 5576 5569 5576 5591 5588 5586 5589 5586 5585 5592 5588 5589 5587 5590 5586 5584 5582 5578 5575 5573 5571
5577 5588 5602 5608 5609 5612 5618 5628 5629 5628 5625 5627 5619 5609 5602 5606 5609 5606 5601 5596 5596 5589 5581 5575 5564 5562 5573 5580 5584 5594 5602 5604 5601 5594 5591 5585 5594 5594 5591 5586 5583 5582 5579 5574 5569